Time,TemperatureF,DewpointF,PressureIn,WindDirection,WindDirectionDegrees,WindSpeedMPH,WindSpeedGustMPH,Humidity,HourlyPrecipIn,Conditions,Clouds,dailyrainin,SoftwareType,DateUTC
2013-04-13 00:03:00,54.0,52.0,29.71,North,10,5.0,-999.0,93,-99.99,,,-99.99,,2013-04-13 04:03:00,
2013-04-13 00:12:00,54.0,52.0,29.71,North,10,5.0,-999.0,93,-99.99,,,-99.99,,2013-04-13 04:12:00,
2013-04-13 00:23:00,54.0,52.0,29.71,North,10,5.0,-999.0,93,-99.99,,,-99.99,,2013-04-13 04:23:00,
2013-04-13 00:33:00,54.0,52.0,29.74,North,10,8.0,-999.0,93,-99.99,,,-99.99,,2013-04-13 04:33:00,
2013-04-13 00:42:00,54.0,52.0,29.74,North,10,8.0,-999.0,93,-99.99,,,-99.99,,2013-04-13 04:42:00,
2013-04-13 00:53:00,54.0,50.0,29.75,North,10,8.0,-999.0,87,-99.99,,,-99.99,,2013-04-13 04:53:00,
2013-04-13 01:03:00,54.0,50.0,29.75,North,10,8.0,-999.0,87,-99.99,,,-99.99,,2013-04-13 05:03:00,
2013-04-13 01:12:00,54.0,50.0,29.77,North,10,7.0,-999.0,87,-99.99,,,-99.99,,2013-04-13 05:12:00,
2013-04-13 01:22:00,54.0,50.0,29.77,North,10,7.0,-999.0,87,-99.99,,,-99.99,,2013-04-13 05:22:00,
2013-04-13 01:32:00,54.0,48.0,29.78,North,350,9.0,-999.0,81,-99.99,,,-99.99,,2013-04-13 05:32:00,
2013-04-13 01:43:00,54.0,48.0,29.78,North,350,9.0,-999.0,81,-99.99,,,-99.99,,2013-04-13 05:43:00,
2013-04-13 01:52:00,54.0,48.0,29.79,NNW,340,5.0,-999.0,81,-99.99,,,-99.99,,2013-04-13 05:52:00,
2013-04-13 02:02:00,54.0,48.0,29.79,NNW,340,5.0,-999.0,81,-99.99,,,-99.99,,2013-04-13 06:02:00,
2013-04-13 02:12:00,52.0,46.0,29.80,North,350,6.0,-999.0,81,-99.99,,,-99.99,,2013-04-13 06:12:00,
2013-04-13 02:24:00,52.0,46.0,29.80,North,350,6.0,-999.0,81,-99.99,,,-99.99,,2013-04-13 06:24:00,
2013-04-13 02:35:00,52.0,46.0,29.80,North,0,0.0,-999.0,81,-99.99,,,-99.99,,2013-04-13 06:35:00,
2013-04-13 02:49:00,52.0,46.0,29.80,North,0,0.0,-999.0,81,-99.99,,,-99.99,,2013-04-13 06:49:00,
2013-04-13 03:08:00,52.0,46.0,29.81,North,0,0.0,-999.0,81,-99.99,,,-99.99,,2013-04-13 07:08:00,
2013-04-13 03:25:00,52.0,46.0,29.81,North,0,0.0,-999.0,81,-99.99,,,-99.99,,2013-04-13 07:25:00,
2013-04-13 03:35:00,50.0,45.0,29.81,North,0,0.0,-999.0,81,-99.99,,,-99.99,,2013-04-13 07:35:00,
2013-04-13 03:45:00,50.0,45.0,29.81,North,0,0.0,-999.0,81,-99.99,,,-99.99,,2013-04-13 07:45:00,
2013-04-13 03:54:00,50.0,45.0,29.82,North,0,0.0,-999.0,81,-99.99,,,-99.99,,2013-04-13 07:54:00,
2013-04-13 04:07:00,50.0,45.0,29.82,North,0,0.0,-999.0,81,-99.99,,,-99.99,,2013-04-13 08:07:00,
2013-04-13 04:16:00,50.0,45.0,29.83,North,0,0.0,-999.0,81,-99.99,,,-99.99,,2013-04-13 08:16:00,
2013-04-13 04:26:00,50.0,45.0,29.83,North,0,0.0,-999.0,81,-99.99,,,-99.99,,2013-04-13 08:26:00,
2013-04-13 04:35:00,48.0,43.0,29.84,North,0,0.0,-999.0,81,-99.99,,,-99.99,,2013-04-13 08:35:00,
2013-04-13 04:46:00,48.0,43.0,29.84,North,0,0.0,-999.0,81,-99.99,,,-99.99,,2013-04-13 08:46:00,
2013-04-13 04:53:00,46.0,43.0,29.85,North,0,0.0,-999.0,87,-99.99,,,-99.99,,2013-04-13 08:53:00,
2013-04-13 05:05:00,46.0,43.0,29.85,North,0,0.0,-999.0,87,-99.99,,,-99.99,,2013-04-13 09:05:00,
2013-04-13 05:14:00,46.0,43.0,29.85,North,0,0.0,-999.0,87,-99.99,,,-99.99,,2013-04-13 09:14:00,
2013-04-13 05:25:00,46.0,43.0,29.85,North,0,0.0,-999.0,87,-99.99,,,-99.99,,2013-04-13 09:25:00,
2013-04-13 05:37:00,46.0,43.0,29.84,North,0,0.0,-999.0,87,-99.99,,,-99.99,,2013-04-13 09:37:00,
2013-04-13 05:51:00,46.0,43.0,29.84,North,0,0.0,-999.0,87,-99.99,,,-99.99,,2013-04-13 09:51:00,
2013-04-13 06:05:00,45.0,43.0,29.84,North,0,0.0,-999.0,93,-99.99,,,-99.99,,2013-04-13 10:05:00,
2013-04-13 06:15:00,45.0,43.0,29.85,North,0,0.0,-999.0,93,-99.99,,,-99.99,,2013-04-13 10:15:00,
2013-04-13 06:25:00,45.0,43.0,29.85,North,0,0.0,-999.0,93,-99.99,,,-99.99,,2013-04-13 10:25:00,
2013-04-13 06:37:00,45.0,41.0,29.85,North,0,0.0,-999.0,87,-99.99,,,-99.99,,2013-04-13 10:37:00,
2013-04-13 06:47:00,45.0,41.0,29.85,North,0,0.0,-999.0,87,-99.99,,,-99.99,,2013-04-13 10:47:00,
2013-04-13 06:54:00,43.0,39.0,29.86,North,0,0.0,-999.0,86,-99.99,,,-99.99,,2013-04-13 10:54:00,
2013-04-13 07:07:00,43.0,39.0,29.86,North,0,0.0,-999.0,86,-99.99,,,-99.99,,2013-04-13 11:07:00,
2013-04-13 07:13:00,43.0,39.0,29.86,North,0,0.0,-999.0,86,-99.99,,,-99.99,,2013-04-13 11:13:00,
2013-04-13 07:24:00,43.0,39.0,29.87,North,0,0.0,-999.0,86,-99.99,,,-99.99,,2013-04-13 11:24:00,
2013-04-13 07:34:00,45.0,43.0,29.89,North,0,0.0,-999.0,93,-99.99,,,-99.99,,2013-04-13 11:34:00,
2013-04-13 07:45:00,45.0,43.0,29.89,North,0,0.0,-999.0,93,-99.99,,,-99.99,,2013-04-13 11:45:00,
2013-04-13 07:53:00,45.0,43.0,29.90,North,0,0.0,-999.0,93,-99.99,,,-99.99,,2013-04-13 11:53:00,
2013-04-13 08:08:00,45.0,43.0,29.90,North,0,0.0,-999.0,93,-99.99,,,-99.99,,2013-04-13 12:08:00,
2013-04-13 08:15:00,46.0,45.0,29.90,North,0,0.0,-999.0,93,-99.99,,,-99.99,,2013-04-13 12:15:00,
2013-04-13 08:25:00,46.0,45.0,29.90,North,0,0.0,-999.0,93,-99.99,,,-99.99,,2013-04-13 12:25:00,
2013-04-13 08:36:00,48.0,46.0,29.90,North,0,0.0,-999.0,93,-99.99,,,-99.99,,2013-04-13 12:36:00,
2013-04-13 08:48:00,48.0,46.0,29.90,North,0,0.0,-999.0,93,-99.99,,,-99.99,,2013-04-13 12:48:00,
2013-04-13 08:54:00,52.0,48.0,29.91,North,0,0.0,-999.0,87,-99.99,,,-99.99,,2013-04-13 12:54:00,
2013-04-13 09:08:00,52.0,48.0,29.91,North,0,0.0,-999.0,87,-99.99,,,-99.99,,2013-04-13 13:08:00,
2013-04-13 09:15:00,54.0,46.0,29.92,North,0,0.0,-999.0,76,-99.99,,,-99.99,,2013-04-13 13:15:00,
2013-04-13 09:35:00,54.0,45.0,29.92,North,0,0.0,-999.0,71,-99.99,,,-99.99,,2013-04-13 13:35:00,
2013-04-13 09:54:00,55.0,41.0,29.92,North,0,0.0,-999.0,58,-99.99,,,-99.99,,2013-04-13 13:54:00,
2013-04-13 10:05:00,55.0,41.0,29.92,North,0,0.0,-999.0,58,-99.99,,,-99.99,,2013-04-13 14:05:00,
2013-04-13 10:15:00,55.0,39.0,29.92,North,0,0.0,-999.0,54,-99.99,,,-99.99,,2013-04-13 14:15:00,
2013-04-13 10:24:00,55.0,39.0,29.92,North,0,0.0,-999.0,54,-99.99,,,-99.99,,2013-04-13 14:24:00,
2013-04-13 10:39:00,55.0,39.0,29.92,North,0,0.0,-999.0,54,-99.99,,,-99.99,,2013-04-13 14:39:00,
2013-04-13 10:47:00,55.0,39.0,29.92,North,0,0.0,-999.0,54,-99.99,,,-99.99,,2013-04-13 14:47:00,
2013-04-13 10:55:00,55.0,39.0,29.92,North,0,0.0,-999.0,54,-99.99,,,-99.99,,2013-04-13 14:55:00,
2013-04-13 11:05:00,55.0,39.0,29.92,North,0,0.0,-999.0,54,-99.99,,,-99.99,,2013-04-13 15:05:00,
2013-04-13 11:14:00,57.0,39.0,29.92,North,0,0.0,-999.0,50,-99.99,,,-99.99,,2013-04-13 15:14:00,
2013-04-13 11:29:00,57.0,39.0,29.92,North,0,0.0,-999.0,50,-99.99,,,-99.99,,2013-04-13 15:29:00,
2013-04-13 11:37:00,57.0,39.0,29.92,North,0,0.0,-999.0,50,-99.99,,,-99.99,,2013-04-13 15:37:00,
2013-04-13 11:44:00,57.0,39.0,29.92,North,0,0.0,-999.0,50,-99.99,,,-99.99,,2013-04-13 15:44:00,
2013-04-13 11:55:00,59.0,39.0,29.92,North,0,0.0,-999.0,47,-99.99,,,-99.99,,2013-04-13 15:55:00,
2013-04-13 12:08:00,59.0,39.0,29.92,North,0,0.0,-999.0,47,-99.99,,,-99.99,,2013-04-13 16:08:00,
2013-04-13 12:15:00,59.0,39.0,29.92,NW,320,8.0,-999.0,47,-99.99,,,-99.99,,2013-04-13 16:15:00,
2013-04-13 12:25:00,59.0,39.0,29.92,NW,320,8.0,-999.0,47,-99.99,,,-99.99,,2013-04-13 16:25:00,
2013-04-13 12:36:00,61.0,39.0,29.91,WNW,300,10.0,-999.0,44,-99.99,,,-99.99,,2013-04-13 16:36:00,
2013-04-13 12:47:00,61.0,39.0,29.91,WNW,300,10.0,-999.0,44,-99.99,,,-99.99,,2013-04-13 16:47:00,
2013-04-13 12:54:00,61.0,37.0,29.92,WNW,290,7.0,-999.0,41,-99.99,,,-99.99,,2013-04-13 16:54:00,
2013-04-13 13:08:00,61.0,37.0,29.92,WNW,290,7.0,-999.0,41,-99.99,,,-99.99,,2013-04-13 17:08:00,
2013-04-13 13:22:00,61.0,37.0,29.91,NW,310,10.0,17.0,41,-99.99,,,-99.99,,2013-04-13 17:22:00,
2013-04-13 13:38:00,61.0,39.0,29.90,North,0,0.0,-999.0,44,-99.99,,,-99.99,,2013-04-13 17:38:00,
2013-04-13 13:44:00,61.0,39.0,29.90,North,0,0.0,-999.0,44,-99.99,,,-99.99,,2013-04-13 17:44:00,
2013-04-13 13:59:00,61.0,37.0,29.90,North,0,0.0,-999.0,41,-99.99,,,-99.99,,2013-04-13 17:59:00,
2013-04-13 14:07:00,61.0,37.0,29.90,North,0,0.0,-999.0,41,-99.99,,,-99.99,,2013-04-13 18:07:00,
2013-04-13 14:15:00,61.0,39.0,29.90,North,10,6.0,-999.0,44,-99.99,,,-99.99,,2013-04-13 18:15:00,
2013-04-13 14:25:00,61.0,39.0,29.90,North,10,6.0,-999.0,44,-99.99,,,-99.99,,2013-04-13 18:25:00,
2013-04-13 14:33:00,63.0,37.0,29.89,NNW,340,8.0,-999.0,39,-99.99,,,-99.99,,2013-04-13 18:33:00,
2013-04-13 14:42:00,63.0,37.0,29.89,NNW,340,8.0,-999.0,39,-99.99,,,-99.99,,2013-04-13 18:42:00,
2013-04-13 14:52:00,63.0,37.0,29.88,West,270,7.0,-999.0,39,-99.99,,,-99.99,,2013-04-13 18:52:00,
2013-04-13 15:03:00,63.0,37.0,29.88,West,270,7.0,-999.0,39,-99.99,,,-99.99,,2013-04-13 19:03:00,
2013-04-13 15:12:00,64.0,39.0,29.87,North,0,0.0,-999.0,39,-99.99,,,-99.99,,2013-04-13 19:12:00,
2013-04-13 15:22:00,64.0,39.0,29.87,North,0,0.0,-999.0,39,-99.99,,,-99.99,,2013-04-13 19:22:00,
2013-04-13 15:32:00,63.0,41.0,29.88,South,170,9.0,-999.0,45,-99.99,,,-99.99,,2013-04-13 19:32:00,
2013-04-13 15:42:00,63.0,41.0,29.88,South,170,9.0,-999.0,45,-99.99,,,-99.99,,2013-04-13 19:42:00,
2013-04-13 15:52:00,63.0,41.0,29.87,SSE,150,6.0,-999.0,45,-99.99,,,-99.99,,2013-04-13 19:52:00,
2013-04-13 16:02:00,63.0,41.0,29.87,SSE,150,6.0,-999.0,45,-99.99,,,-99.99,,2013-04-13 20:02:00,
2013-04-13 16:12:00,61.0,41.0,29.87,SSE,160,10.0,-999.0,48,-99.99,,,-99.99,,2013-04-13 20:12:00,
2013-04-13 16:22:00,61.0,41.0,29.87,SSE,160,10.0,-999.0,48,-99.99,,,-99.99,,2013-04-13 20:22:00,
2013-04-13 16:32:00,63.0,41.0,29.87,South,170,5.0,-999.0,45,-99.99,,,-99.99,,2013-04-13 20:32:00,
2013-04-13 16:42:00,63.0,41.0,29.87,South,170,5.0,-999.0,45,-99.99,,,-99.99,,2013-04-13 20:42:00,
2013-04-13 16:52:00,63.0,41.0,29.86,SE,130,6.0,-999.0,45,-99.99,,,-99.99,,2013-04-13 20:52:00,
2013-04-13 17:02:00,63.0,41.0,29.86,SE,130,6.0,-999.0,45,-99.99,,,-99.99,,2013-04-13 21:02:00,
2013-04-13 17:12:00,63.0,39.0,29.86,South,170,9.0,-999.0,41,-99.99,,,-99.99,,2013-04-13 21:12:00,
2013-04-13 17:22:00,63.0,39.0,29.86,South,170,9.0,-999.0,41,-99.99,,,-99.99,,2013-04-13 21:22:00,
2013-04-13 17:33:00,63.0,39.0,29.86,SSW,200,7.0,-999.0,41,-99.99,,,-99.99,,2013-04-13 21:33:00,
2013-04-13 17:43:00,63.0,39.0,29.86,SSW,200,7.0,-999.0,41,-99.99,,,-99.99,,2013-04-13 21:43:00,
2013-04-13 17:52:00,63.0,39.0,29.86,South,180,8.0,-999.0,41,-99.99,,,-99.99,,2013-04-13 21:52:00,
2013-04-13 18:03:00,63.0,39.0,29.86,South,180,8.0,-999.0,41,-99.99,,,-99.99,,2013-04-13 22:03:00,
2013-04-13 18:12:00,63.0,39.0,29.86,South,180,8.0,-999.0,41,-99.99,,,-99.99,,2013-04-13 22:12:00,
2013-04-13 18:23:00,63.0,39.0,29.86,South,180,8.0,-999.0,41,-99.99,,,-99.99,,2013-04-13 22:23:00,
2013-04-13 18:33:00,61.0,43.0,29.87,SSE,150,7.0,-999.0,51,-99.99,,,-99.99,,2013-04-13 22:33:00,
2013-04-13 18:42:00,61.0,43.0,29.87,SSE,150,7.0,-999.0,51,-99.99,,,-99.99,,2013-04-13 22:42:00,
2013-04-13 18:53:00,61.0,43.0,29.87,South,170,10.0,17.0,51,-99.99,,,-99.99,,2013-04-13 22:53:00,
2013-04-13 19:02:00,61.0,43.0,29.87,South,170,10.0,17.0,51,-99.99,,,-99.99,,2013-04-13 23:02:00,
2013-04-13 19:12:00,61.0,43.0,29.87,South,190,8.0,-999.0,51,-99.99,,,-99.99,,2013-04-13 23:12:00,
2013-04-13 19:22:00,61.0,43.0,29.87,South,190,8.0,-999.0,51,-99.99,,,-99.99,,2013-04-13 23:22:00,
2013-04-13 19:33:00,59.0,41.0,29.87,South,190,5.0,-999.0,51,-99.99,,,-99.99,,2013-04-13 23:33:00,
2013-04-13 19:42:00,59.0,41.0,29.87,South,190,5.0,-999.0,51,-99.99,,,-99.99,,2013-04-13 23:42:00,
2013-04-13 19:52:00,57.0,39.0,29.87,South,170,6.0,-999.0,50,-99.99,,,-99.99,,2013-04-13 23:52:00,
2013-04-13 20:03:00,57.0,39.0,29.87,South,170,6.0,-999.0,50,-99.99,,,-99.99,,2013-04-14 00:03:00,
2013-04-13 20:12:00,57.0,39.0,29.88,South,180,7.0,-999.0,50,-99.99,,,-99.99,,2013-04-14 00:12:00,
2013-04-13 20:22:00,57.0,39.0,29.88,South,180,7.0,-999.0,50,-99.99,,,-99.99,,2013-04-14 00:22:00,
2013-04-13 20:32:00,57.0,43.0,29.88,SSW,200,9.0,-999.0,58,-99.99,,,-99.99,,2013-04-14 00:32:00,
2013-04-13 20:42:00,57.0,43.0,29.88,SSW,200,9.0,-999.0,58,-99.99,,,-99.99,,2013-04-14 00:42:00,
2013-04-13 20:52:00,57.0,45.0,29.89,SSE,160,5.0,-999.0,62,-99.99,,,-99.99,,2013-04-14 00:52:00,
2013-04-13 21:02:00,57.0,45.0,29.89,SSE,160,5.0,-999.0,62,-99.99,,,-99.99,,2013-04-14 01:02:00,
2013-04-13 21:12:00,55.0,45.0,29.90,South,180,5.0,-999.0,66,-99.99,,,-99.99,,2013-04-14 01:12:00,
2013-04-13 21:22:00,55.0,45.0,29.90,South,180,5.0,-999.0,66,-99.99,,,-99.99,,2013-04-14 01:22:00,
2013-04-13 21:32:00,55.0,45.0,29.90,South,190,9.0,-999.0,66,-99.99,,,-99.99,,2013-04-14 01:32:00,
2013-04-13 21:42:00,55.0,45.0,29.90,South,190,9.0,-999.0,66,-99.99,,,-99.99,,2013-04-14 01:42:00,
2013-04-13 21:52:00,55.0,45.0,29.91,SSW,200,5.0,-999.0,66,-99.99,,,-99.99,,2013-04-14 01:52:00,
2013-04-13 22:03:00,55.0,45.0,29.91,SSW,200,5.0,-999.0,66,-99.99,,,-99.99,,2013-04-14 02:03:00,
2013-04-13 22:12:00,55.0,45.0,29.92,South,190,5.0,-999.0,66,-99.99,,,-99.99,,2013-04-14 02:12:00,
2013-04-13 22:22:00,55.0,45.0,29.92,South,190,5.0,-999.0,66,-99.99,,,-99.99,,2013-04-14 02:22:00,
2013-04-13 22:32:00,55.0,46.0,29.92,North,0,0.0,-999.0,71,-99.99,,,-99.99,,2013-04-14 02:32:00,
2013-04-13 22:42:00,55.0,46.0,29.92,North,0,0.0,-999.0,71,-99.99,,,-99.99,,2013-04-14 02:42:00,
2013-04-13 22:52:00,54.0,45.0,29.92,North,0,0.0,-999.0,71,-99.99,,,-99.99,,2013-04-14 02:52:00,
2013-04-13 23:03:00,54.0,45.0,29.92,North,0,0.0,-999.0,71,-99.99,,,-99.99,,2013-04-14 03:03:00,
2013-04-13 23:12:00,54.0,45.0,29.92,North,0,0.0,-999.0,71,-99.99,,,-99.99,,2013-04-14 03:12:00,
2013-04-13 23:22:00,54.0,45.0,29.92,North,0,0.0,-999.0,71,-99.99,,,-99.99,,2013-04-14 03:22:00,
2013-04-13 23:33:00,54.0,45.0,29.93,North,0,0.0,-999.0,71,-99.99,,,-99.99,,2013-04-14 03:33:00,
2013-04-13 23:43:00,54.0,45.0,29.93,North,0,0.0,-999.0,71,-99.99,,,-99.99,,2013-04-14 03:43:00,
2013-04-13 23:53:00,54.0,45.0,29.93,North,0,0.0,-999.0,71,-99.99,,,-99.99,,2013-04-14 03:53:00,